DLH4JV EDDF-EDDS

Flight info

Callsign DLH4JV
Flight time 0h 23m
Altitude 17000
Route ANEKI2L/18 ANEKI Y163 NEKLO Y171 INKAM N850 KRH T128 BADSO BADSO2A
Aircraft A321/M-SDE3FGHIRWY/LB1

Departure

Time 2026-05-04 19:58
Airport Frankfurt Main Airport (EDDF)

Arrival

Time 2026-05-04 20:22
Airport Stuttgart Airport (EDDS)
Time Latitude Longitude Altitude Speed Heading
2026-05-04 19:37 50.04870 8.58975 368 ft 0 kts 342°
2026-05-04 19:44 50.04848 8.58986 368 ft 4 kts 340°
2026-05-04 19:44 50.04823 8.59001 367 ft 4 kts 338°
2026-05-04 19:44 50.04798 8.59017 369 ft 4 kts 339°
2026-05-04 19:44 50.04791 8.59021 368 ft 0 kts 340°
2026-05-04 19:46 50.04792 8.59021 368 ft 1 kts 340°
2026-05-04 19:46 50.04812 8.59042 369 ft 8 kts 56°
2026-05-04 19:46 50.04831 8.59165 373 ft 13 kts 79°
2026-05-04 19:46 50.04855 8.59314 369 ft 15 kts 74°
2026-05-04 19:47 50.04858 8.59447 372 ft 3 kts 115°
2026-05-04 19:47 50.04845 8.59474 371 ft 0 kts 131°
2026-05-04 19:48 50.04813 8.59519 373 ft 13 kts 139°
2026-05-04 19:48 50.04719 8.59596 374 ft 16 kts 162°
2026-05-04 19:48 50.04603 8.59618 375 ft 17 kts 179°
2026-05-04 19:49 50.04482 8.59627 376 ft 18 kts 176°
2026-05-04 19:49 50.04412 8.59631 376 ft 0 kts 178°
2026-05-04 19:50 50.04383 8.59632 376 ft 10 kts 179°
2026-05-04 19:50 50.04268 8.59639 376 ft 22 kts 178°
2026-05-04 19:51 50.04109 8.59588 375 ft 24 kts 201°
2026-05-04 19:51 50.03957 8.59454 372 ft 27 kts 220°
2026-05-04 19:51 50.03845 8.59185 367 ft 31 kts 248°
2026-05-04 19:51 50.03769 8.58862 363 ft 33 kts 249°
2026-05-04 19:52 50.03687 8.58522 364 ft 34 kts 252°
2026-05-04 19:52 50.03612 8.58200 363 ft 30 kts 249°
2026-05-04 19:52 50.03539 8.57895 360 ft 30 kts 250°
2026-05-04 19:52 50.03466 8.57579 356 ft 31 kts 250°
2026-05-04 19:53 50.03388 8.57257 358 ft 32 kts 249°
2026-05-04 19:53 50.03308 8.56929 354 ft 33 kts 250°
2026-05-04 19:53 50.03229 8.56591 357 ft 34 kts 250°
2026-05-04 19:53 50.03147 8.56251 347 ft 33 kts 248°
2026-05-04 19:54 50.03072 8.55939 352 ft 31 kts 250°
2026-05-04 19:54 50.02997 8.55623 350 ft 31 kts 249°
2026-05-04 19:54 50.02921 8.55305 349 ft 31 kts 250°
2026-05-04 19:54 50.02844 8.54984 351 ft 32 kts 249°
2026-05-04 19:55 50.02766 8.54657 344 ft 32 kts 249°
2026-05-04 19:55 50.02689 8.54347 339 ft 31 kts 250°
2026-05-04 19:55 50.02623 8.54021 333 ft 32 kts 250°
2026-05-04 19:55 50.02548 8.53703 334 ft 30 kts 250°
2026-05-04 19:56 50.02477 8.53399 335 ft 30 kts 250°
2026-05-04 19:56 50.02407 8.53100 334 ft 30 kts 250°
2026-05-04 19:56 50.02346 8.52842 333 ft 22 kts 251°
2026-05-04 19:56 50.02304 8.52640 333 ft 13 kts 249°
2026-05-04 19:57 50.02284 8.52604 332 ft 0 kts 179°
2026-05-04 19:57 50.02260 8.52605 334 ft 18 kts 179°
2026-05-04 19:57 50.01836 8.52609 331 ft 101 kts 180°
2026-05-04 19:58 50.00897 8.52626 380 ft 160 kts 179°
2026-05-04 19:58 49.99823 8.52711 1166 ft 156 kts 178°
2026-05-04 19:58 49.98737 8.52785 1866 ft 159 kts 178°
2026-05-04 19:58 49.97561 8.52859 2245 ft 180 kts 178°
2026-05-04 19:59 49.96230 8.52942 2582 ft 202 kts 178°
2026-05-04 19:59 49.94742 8.53037 2897 ft 226 kts 178°
2026-05-04 19:59 49.93137 8.53143 3623 ft 232 kts 178°
2026-05-04 19:59 49.91525 8.53250 4510 ft 232 kts 178°
2026-05-04 20:00 49.89911 8.53357 5404 ft 232 kts 178°
2026-05-04 20:00 49.88301 8.53466 6315 ft 231 kts 178°
2026-05-04 20:00 49.86695 8.53576 7166 ft 231 kts 179°
2026-05-04 20:00 49.85082 8.53685 7998 ft 233 kts 179°
2026-05-04 20:01 49.83451 8.53796 8799 ft 236 kts 179°
2026-05-04 20:01 49.81799 8.53908 9594 ft 239 kts 179°
2026-05-04 20:01 49.80130 8.54020 10351 ft 241 kts 179°
2026-05-04 20:01 49.78442 8.54129 11070 ft 244 kts 181°
2026-05-04 20:02 49.76710 8.53978 11522 ft 259 kts 186°
2026-05-04 20:02 49.74831 8.53727 11748 ft 283 kts 186°
2026-05-04 20:02 49.72787 8.53445 11942 ft 306 kts 186°
2026-05-04 20:02 49.70586 8.53141 12082 ft 329 kts 186°
2026-05-04 20:03 49.68236 8.52821 12232 ft 349 kts 186°
2026-05-04 20:03 49.65746 8.52490 12346 ft 368 kts 186°
2026-05-04 20:03 49.63132 8.52147 12524 ft 383 kts 186°
2026-05-04 20:03 49.60470 8.51801 12731 ft 397 kts 186°
2026-05-04 20:04 49.57687 8.51442 13077 ft 405 kts 186°
2026-05-04 20:04 49.54859 8.51076 13561 ft 409 kts 186°
2026-05-04 20:04 49.52015 8.50705 14038 ft 412 kts 186°
2026-05-04 20:04 49.49139 8.50328 14504 ft 415 kts 186°
2026-05-04 20:05 49.46256 8.49950 14993 ft 418 kts 186°
2026-05-04 20:05 49.43347 8.49569 15466 ft 421 kts 186°
2026-05-04 20:05 49.40414 8.49186 15895 ft 425 kts 185°
2026-05-04 20:05 49.37456 8.48800 16343 ft 428 kts 185°
2026-05-04 20:06 49.34475 8.48418 16788 ft 430 kts 184°
2026-05-04 20:06 49.31482 8.48473 16965 ft 432 kts 175°
2026-05-04 20:06 49.28513 8.49250 16995 ft 433 kts 167°
2026-05-04 20:06 49.25671 8.50771 16991 ft 434 kts 157°
2026-05-04 20:07 49.23029 8.53037 16990 ft 436 kts 149°
2026-05-04 20:07 49.20466 8.55513 16979 ft 436 kts 149°
2026-05-04 20:07 49.17838 8.57788 16981 ft 433 kts 156°
2026-05-04 20:07 49.15011 8.59322 16982 ft 431 kts 167°
2026-05-04 20:08 49.12060 8.60032 16984 ft 429 kts 177°
2026-05-04 20:08 49.09114 8.59908 16985 ft 429 kts 186°
2026-05-04 20:08 49.06149 8.59451 16985 ft 429 kts 184°
2026-05-04 20:08 49.03169 8.59678 16713 ft 429 kts 170°
2026-05-04 20:09 49.00375 8.61116 15920 ft 422 kts 154°
2026-05-04 20:09 48.98021 8.63728 15190 ft 417 kts 136°
2026-05-04 20:09 48.96214 8.67217 14713 ft 423 kts 125°
2026-05-04 20:09 48.94557 8.70922 14236 ft 423 kts 124°
2026-05-04 20:10 48.93428 8.75027 13872 ft 425 kts 104°
2026-05-04 20:10 48.93185 8.79512 13487 ft 426 kts 92°
2026-05-04 20:10 48.93117 8.84007 13076 ft 423 kts 94°
2026-05-04 20:10 48.92999 8.88464 12683 ft 420 kts 95°
2026-05-04 20:11 48.92843 8.92892 12303 ft 417 kts 95°
2026-05-04 20:11 48.92669 8.97282 11940 ft 415 kts 96°
2026-05-04 20:11 48.92492 9.01646 11588 ft 413 kts 96°
2026-05-04 20:11 48.92320 9.05986 11240 ft 410 kts 96°
2026-05-04 20:12 48.92154 9.10305 10894 ft 408 kts 96°
2026-05-04 20:12 48.91990 9.14604 10551 ft 406 kts 96°
2026-05-04 20:12 48.91829 9.18892 10210 ft 403 kts 96°
2026-05-04 20:12 48.91555 9.23057 9872 ft 399 kts 103°
2026-05-04 20:13 48.90985 9.27164 9486 ft 397 kts 104°
2026-05-04 20:13 48.90425 9.31260 9109 ft 395 kts 104°
2026-05-04 20:13 48.89861 9.35338 8738 ft 393 kts 104°
2026-05-04 20:13 48.89294 9.39388 8367 ft 390 kts 104°
2026-05-04 20:14 48.88730 9.43362 7755 ft 379 kts 104°
2026-05-04 20:14 48.88165 9.47244 7133 ft 374 kts 104°
2026-05-04 20:14 48.87593 9.51076 6540 ft 371 kts 104°
2026-05-04 20:14 48.86859 9.54811 6029 ft 366 kts 116°
2026-05-04 20:15 48.85423 9.57891 5526 ft 351 kts 136°
2026-05-04 20:15 48.83426 9.59837 5161 ft 336 kts 158°
2026-05-04 20:15 48.81256 9.60850 4928 ft 318 kts 163°
2026-05-04 20:15 48.79163 9.61707 4712 ft 303 kts 164°
2026-05-04 20:16 48.77140 9.62059 4604 ft 287 kts 188°
2026-05-04 20:16 48.75381 9.60873 4500 ft 272 kts 222°
2026-05-04 20:16 48.74440 9.58523 4390 ft 258 kts 259°
2026-05-04 20:16 48.74540 9.55918 4291 ft 243 kts 285°
2026-05-04 20:17 48.74769 9.53423 4193 ft 240 kts 265°
2026-05-04 20:17 48.74429 9.50985 4081 ft 229 kts 254°
2026-05-04 20:17 48.73998 9.48796 4007 ft 204 kts 254°
2026-05-04 20:17 48.73615 9.46802 4018 ft 193 kts 255°
2026-05-04 20:18 48.73255 9.44889 3897 ft 189 kts 255°
2026-05-04 20:18 48.72899 9.42988 3691 ft 185 kts 256°
2026-05-04 20:18 48.72550 9.41124 3461 ft 183 kts 256°
2026-05-04 20:18 48.72202 9.39265 3222 ft 182 kts 257°
2026-05-04 20:19 48.71858 9.37434 2967 ft 180 kts 256°
2026-05-04 20:19 48.71627 9.36204 2808 ft 176 kts 257°
2026-05-04 20:19 48.71314 9.34545 2595 ft 158 kts 257°
2026-05-04 20:19 48.71025 9.33010 2388 ft 147 kts 258°
2026-05-04 20:20 48.70749 9.31541 2192 ft 143 kts 257°
2026-05-04 20:20 48.70479 9.30103 2001 ft 142 kts 256°
2026-05-04 20:20 48.70211 9.28678 1795 ft 141 kts 256°
2026-05-04 20:20 48.69936 9.27251 1618 ft 141 kts 255°
2026-05-04 20:21 48.69665 9.25821 1448 ft 141 kts 258°
2026-05-04 20:21 48.69401 9.24407 1260 ft 139 kts 255°
2026-05-04 20:21 48.68986 9.22179 1239 ft 54 kts 252°
2026-05-04 20:22 48.68943 9.21794 1246 ft 34 kts 275°
2026-05-04 20:22 48.68987 9.21466 1256 ft 30 kts 282°
2026-05-04 20:22 48.68970 9.21185 1266 ft 26 kts 259°
2026-05-04 20:22 48.68924 9.20932 1270 ft 24 kts 255°
2026-05-04 20:23 48.68879 9.20696 1275 ft 23 kts 252°
2026-05-04 20:23 48.68835 9.20471 1280 ft 22 kts 253°
2026-05-04 20:23 48.68796 9.20258 1286 ft 21 kts 255°
2026-05-04 20:23 48.68762 9.20054 1290 ft 19 kts 263°
2026-05-04 20:24 48.68821 9.19914 1298 ft 15 kts 327°
2026-05-04 20:24 48.68889 9.19839 1304 ft 10 kts 285°
2026-05-04 20:24 48.68875 9.19743 1307 ft 9 kts 254°
2026-05-04 20:24 48.68860 9.19656 1309 ft 8 kts 254°
2026-05-04 20:25 48.68842 9.19563 1310 ft 11 kts 254°
2026-05-04 20:25 48.68819 9.19453 1312 ft 9 kts 242°
2026-05-04 20:25 48.68767 9.19455 1310 ft 3 kts 165°
2026-05-04 20:25 48.68759 9.19458 1310 ft 1 kts 164°
2026-05-04 20:26 48.68755 9.19460 1310 ft 0 kts 164°